,,Stat6,,Stat2,,Stat8,,Stat9,,Stat10,,Wind1,,Wind1,
time,status,PA1M_AVG,status,PR1M_SUM,status,RH1M_AVG,status,SR1M_AVG,status,TA1M_AVG,status,W1dAve1m,status,W1sAve1m,
2004-03-22, 00:00:00,VALID,918.281,VALID,0,VALID,97.2205,VALID,0,VALID,19.9566,VALID,5,VALID,0.276414,
2004-03-22, 00:01:00,VALID,918.251,VALID,0,VALID,97.2218,VALID,0.0339617,VALID,19.9536,VALID,6,VALID,0.204215,
2004-03-22, 00:02:00,VALID,918.221,VALID,0,VALID,97.4469,VALID,0.0679233,VALID,19.9509,VALID,6,VALID,0.289063,
2004-03-22, 00:03:00,VALID,918.211,VALID,0,VALID,97.7508,VALID,0.0679233,VALID,19.963,VALID,6,VALID,0.286914,
2004-03-22, 00:04:00,VALID,918.231,VALID,0,VALID,97.4799,VALID,0,VALID,19.9596,VALID,6,VALID,0.0419034,
2004-03-22, 00:05:00,VALID,918.241,VALID,0,VALID,97.1709,VALID,0.0509425,VALID,19.9372,VALID,6,VALID,0,
2004-03-22, 00:06:00,VALID,918.248,VALID,0,VALID,97.059,VALID,0.0339617,VALID,19.9079,VALID,6,VALID,0,
2004-03-22, 00:07:00,VALID,918.243,VALID,0,VALID,97.19,VALID,0.0509425,VALID,19.9183,VALID,6,VALID,0,
2004-03-22, 00:08:00,VALID,918.231,VALID,0,VALID,97.5562,VALID,0.0169808,VALID,19.9509,VALID,6,VALID,0.0846657,
2004-03-22, 00:09:00,VALID,918.205,VALID,0,VALID,97.3833,VALID,0.0169808,VALID,19.9506,VALID,53,VALID,0.387153,
2004-03-22, 00:10:00,VALID,918.209,VALID,0,VALID,97.1684,VALID,0.0169808,VALID,19.9116,VALID,120,VALID,0.476563,
2004-03-22, 00:11:00,VALID,918.2,VALID,0,VALID,97.1608,VALID,0.0509425,VALID,19.86,VALID,120,VALID,0.410792,
2004-03-22, 00:12:00,VALID,918.178,VALID,0,VALID,97.555,VALID,0.0849042,VALID,19.8306,VALID,120,VALID,0.384055,
2004-03-22, 00:13:00,VALID,918.153,VALID,0,VALID,97.2943,VALID,0.0679233,VALID,19.8115,VALID,120,VALID,0.407203,
2004-03-22, 00:14:00,VALID,918.137,VALID,0,VALID,97.04,VALID,0.0679233,VALID,19.73,VALID,120,VALID,0.0103561,
2004-03-22, 00:15:00,VALID,918.142,VALID,0,VALID,97.0298,VALID,0.0339617,VALID,19.6883,VALID,120,VALID,0.00099734,
2004-03-22, 00:16:00,VALID,918.134,VALID,0,VALID,97.1608,VALID,0.0509425,VALID,19.6662,VALID,120,VALID,0,
2004-03-22, 00:17:00,VALID,918.115,VALID,0,VALID,97.5015,VALID,0.0509425,VALID,19.6719,VALID,120,VALID,0.0833939,
2004-03-22, 00:18:00,VALID,918.115,VALID,0,VALID,96.6559,VALID,0.0509425,VALID,19.5783,VALID,120,VALID,0,
2004-03-22, 00:19:00,VALID,918.102,VALID,0,VALID,97.616,VALID,0.0509425,VALID,19.6113,VALID,120,VALID,0,
2004-03-22, 00:20:00,VALID,918.092,VALID,0,VALID,97.7533,VALID,0.0509425,VALID,19.6401,VALID,120,VALID,0,
2004-03-22, 00:21:00,VALID,918.087,VALID,0,VALID,97.8347,VALID,0.0679233,VALID,19.6429,VALID,120,VALID,0.014606,
2004-03-22, 00:22:00,VALID,918.055,VALID,0,VALID,97.5486,VALID,0.0679233,VALID,19.618,VALID,120,VALID,0.19798,
2004-03-22, 00:23:00,VALID,918.051,VALID,0,VALID,97.9771,VALID,0.101885,VALID,19.6337,VALID,120,VALID,0.0111607,
2004-03-22, 00:24:00,VALID,918.044,VALID,0,VALID,98.2683,VALID,0.0679233,VALID,19.6794,VALID,120,VALID,0,
2004-03-22, 00:25:00,VALID,918.056,VALID,0,VALID,98.735,VALID,0.0849042,VALID,19.7464,VALID,120,VALID,0,
2004-03-22, 00:26:00,VALID,918.068,VALID,0,VALID,98.6994,VALID,0.0339617,VALID,19.7857,VALID,120,VALID,0,
2004-03-22, 00:27:00,VALID,918.071,VALID,0,VALID,98.838,VALID,0.0679233,VALID,19.8311,VALID,120,VALID,0.00816761,
2004-03-22, 00:28:00,VALID,918.068,VALID,0,VALID,98.8889,VALID,0.0679233,VALID,19.8562,VALID,120,VALID,0.030692,
2004-03-22, 00:29:00,VALID,918.035,VALID,0,VALID,98.7782,VALID,0.0509425,VALID,19.8788,VALID,120,VALID,0,
2004-03-22, 00:30:00,VALID,918.02,VALID,0,VALID,98.6727,VALID,0.0339617,VALID,19.8858,VALID,120,VALID,0,
2004-03-22, 00:31:00,VALID,918.021,VALID,0,VALID,98.7808,VALID,0,VALID,19.8922,VALID,120,VALID,0,
2004-03-22, 00:32:00,VALID,918.025,VALID,0,VALID,98.9258,VALID,0,VALID,19.9312,VALID,120,VALID,0,
2004-03-22, 00:33:00,VALID,918.028,VALID,0,VALID,98.7592,VALID,0.0169808,VALID,19.9442,VALID,120,VALID,0,
2004-03-22, 00:34:00,VALID,918.008,VALID,0,VALID,98.632,VALID,0,VALID,19.9511,VALID,120,VALID,0,
2004-03-22, 00:35:00,VALID,918,VALID,0,VALID,98.5265,VALID,0,VALID,19.9481,VALID,120,VALID,0,
2004-03-22, 00:36:00,VALID,917.97,VALID,0,VALID,98.3815,VALID,-0.0169808,VALID,19.9414,VALID,120,VALID,0,
2004-03-22, 00:37:00,VALID,917.964,VALID,0,VALID,98.2429,VALID,0,VALID,19.9059,VALID,120,VALID,0,
2004-03-22, 00:38:00,VALID,917.966,VALID,0,VALID,97.7266,VALID,0.0339617,VALID,19.8252,VALID,120,VALID,0,
2004-03-22, 00:39:00,VALID,917.974,VALID,0,VALID,97.368,VALID,0.0169808,VALID,19.7281,VALID,120,VALID,0,
2004-03-22, 00:40:00,VALID,917.966,VALID,0,VALID,97.7266,VALID,0,VALID,19.699,VALID,120,VALID,0.140625,
2004-03-22, 00:41:00,VALID,917.976,VALID,0,VALID,97.63,VALID,0,VALID,19.6707,VALID,120,VALID,0.110328,
2004-03-22, 00:42:00,VALID,917.962,VALID,0,VALID,97.5181,VALID,0.0169808,VALID,19.6088,VALID,89,VALID,0.241824,
2004-03-22, 00:43:00,VALID,917.956,VALID,0,VALID,97.4787,VALID,-0.0169808,VALID,19.5634,VALID,35,VALID,0.408346,
2004-03-22, 00:44:00,VALID,917.924,VALID,0,VALID,97.218,VALID,0,VALID,19.4893,VALID,34,VALID,0.434956,
2004-03-22, 00:45:00,VALID,917.91,VALID,0,VALID,97.2828,VALID,-0.0169808,VALID,19.4506,VALID,33,VALID,0.369606,
2004-03-22, 00:46:00,VALID,917.909,VALID,0,VALID,97.382,VALID,0,VALID,19.428,VALID,30,VALID,0.476563,
2004-03-22, 00:47:00,VALID,917.912,VALID,0,VALID,97.4494,VALID,0,VALID,19.4054,VALID,23,VALID,0.509718,
2004-03-22, 00:48:00,VALID,917.898,VALID,0,VALID,97.7139,VALID,0,VALID,19.4056,VALID,23,VALID,0.485618,
2004-03-22, 00:49:00,VALID,917.883,VALID,0,VALID,97.7673,VALID,0,VALID,19.3793,VALID,23,VALID,0.459985,
2004-03-22, 00:50:00,VALID,917.875,VALID,0,VALID,97.8411,VALID,-0.0169808,VALID,19.3567,VALID,23,VALID,0.461632,
2004-03-22, 00:51:00,VALID,917.86,VALID,0,VALID,97.9046,VALID,-0.0169808,VALID,19.3274,VALID,23,VALID,0.298234,
2004-03-22, 00:52:00,VALID,917.836,VALID,0,VALID,98.3408,VALID,0,VALID,19.3826,VALID,23,VALID,0.232329,
2004-03-22, 00:53:00,VALID,917.818,VALID,0,VALID,98.5112,VALID,0.0169808,VALID,19.4022,VALID,23,VALID,0.0167151,
2004-03-22, 00:54:00,VALID,917.784,VALID,0,VALID,98.6969,VALID,0,VALID,19.431,VALID,23,VALID,0,
2004-03-22, 00:55:00,VALID,917.727,VALID,0,VALID,98.6256,VALID,0,VALID,19.4476,VALID,23,VALID,0,
2004-03-22, 00:56:00,VALID,917.691,VALID,0,VALID,98.9664,VALID,0,VALID,19.4926,VALID,23,VALID,0.0769531,
2004-03-22, 00:57:00,VALID,917.679,VALID,0,VALID,99.0529,VALID,0,VALID,19.5668,VALID,23,VALID,0.00214844,
2004-03-22, 00:58:00,VALID,917.696,VALID,0,VALID,98.8749,VALID,0,VALID,19.5579,VALID,23,VALID,0,
2004-03-22, 00:59:00,VALID,917.72,VALID,0,VALID,98.9868,VALID,0.0169808,VALID,19.586,VALID,23,VALID,0.000744048,
2004-03-22, 01:00:00,VALID,917.721,VALID,0,VALID,98.9868,VALID,-0.0169808,VALID,19.6024,VALID,23,VALID,0,
2004-03-22, 01:01:00,VALID,917.698,VALID,0,VALID,98.7579,VALID,0,VALID,19.6128,VALID,23,VALID,0,
2004-03-22, 01:02:00,VALID,917.689,VALID,0,VALID,98.3167,VALID,0,VALID,19.5636,VALID,23,VALID,0,
2004-03-22, 01:03:00,VALID,917.671,VALID,0,VALID,98.384,VALID,0,VALID,19.545,VALID,23,VALID,0,
2004-03-22, 01:04:00,VALID,917.68,VALID,0,VALID,98.3942,VALID,0,VALID,19.541,VALID,23,VALID,0,
2004-03-22, 01:05:00,VALID,917.666,VALID,0,VALID,98.3586,VALID,-0.0169808,VALID,19.5316,VALID,23,VALID,0,
2004-03-22, 01:06:00,VALID,917.637,VALID,0,VALID,98.4845,VALID,0,VALID,19.538,VALID,23,VALID,0.0417259,
2004-03-22, 01:07:00,VALID,917.613,VALID,0,VALID,98.4082,VALID,0,VALID,19.5318,VALID,23,VALID,0.035061,
2004-03-22, 01:08:00,VALID,917.597,VALID,0,VALID,98.5252,VALID,0,VALID,19.5249,VALID,23,VALID,0,
2004-03-22, 01:09:00,VALID,917.603,VALID,0,VALID,98.4947,VALID,-0.0169808,VALID,19.5249,VALID,23,VALID,0,
2004-03-22, 01:10:00,VALID,917.601,VALID,0,VALID,98.075,VALID,0,VALID,19.4603,VALID,23,VALID,0,
2004-03-22, 01:11:00,VALID,917.61,VALID,0,VALID,98.0293,VALID,0,VALID,19.4474,VALID,23,VALID,0,
2004-03-22, 01:12:00,VALID,917.613,VALID,0,VALID,97.6491,VALID,0,VALID,19.3987,VALID,23,VALID,0,
2004-03-22, 01:13:00,VALID,917.616,VALID,0,VALID,97.6249,VALID,-0.0169808,VALID,19.383,VALID,23,VALID,0.0279797,
2004-03-22, 01:14:00,VALID,917.604,VALID,0,VALID,96.8785,VALID,-0.0169808,VALID,19.2991,VALID,23,VALID,0.143643,
2004-03-22, 01:15:00,VALID,917.608,VALID,0,VALID,96.5364,VALID,0,VALID,19.2082,VALID,23,VALID,0.0257994,
2004-03-22, 01:16:00,VALID,917.612,VALID,0,VALID,97.3731,VALID,0.0509425,VALID,19.2402,VALID,23,VALID,0.323765,
2004-03-22, 01:17:00,VALID,917.623,VALID,0,VALID,98.0115,VALID,0.0339617,VALID,19.3242,VALID,23,VALID,0.0324219,
2004-03-22, 01:18:00,VALID,917.606,VALID,0,VALID,98.281,VALID,0.0169808,VALID,19.3696,VALID,23,VALID,0.0465278,
2004-03-22, 01:19:00,VALID,917.582,VALID,0,VALID,98.2632,VALID,0.0339617,VALID,19.3888,VALID,23,VALID,0.205305,
2004-03-22, 01:20:00,VALID,917.572,VALID,0,VALID,98.2683,VALID,0.0339617,VALID,19.4022,VALID,23,VALID,0,
2004-03-22, 01:21:00,VALID,917.563,VALID,0,VALID,98.3497,VALID,0.101885,VALID,19.4081,VALID,23,VALID,0,
2004-03-22, 01:22:00,VALID,917.562,VALID,0,VALID,98.5227,VALID,0.0509425,VALID,19.4538,VALID,23,VALID,0.270712,
2004-03-22, 01:23:00,VALID,917.583,VALID,0,VALID,98.3357,VALID,0.0339617,VALID,19.4566,VALID,23,VALID,0.180051,
2004-03-22, 01:24:00,VALID,917.559,VALID,0,VALID,98.1958,VALID,0.0509425,VALID,19.4374,VALID,23,VALID,0.2629,
2004-03-22, 01:25:00,VALID,917.539,VALID,0,VALID,98.8889,VALID,0.0679233,VALID,19.5472,VALID,23,VALID,0.0868056,
2004-03-22, 01:26:00,VALID,917.516,VALID,0,VALID,98.941,VALID,0.0509425,VALID,19.5991,VALID,23,VALID,0.00585938,
2004-03-22, 01:27:00,VALID,917.498,VALID,0,VALID,98.8189,VALID,0.0509425,VALID,19.6016,VALID,23,VALID,0.23274,
2004-03-22, 01:28:00,VALID,917.502,VALID,0,VALID,98.6791,VALID,0.0339617,VALID,19.6178,VALID,23,VALID,0,
2004-03-22, 01:29:00,VALID,917.505,VALID,0,VALID,98.295,VALID,0.0509425,VALID,19.5922,VALID,23,VALID,0,
2004-03-22, 01:30:00,VALID,917.479,VALID,0,VALID,98.2556,VALID,0.0679233,VALID,19.6058,VALID,23,VALID,0.00334821,
2004-03-22, 01:31:00,VALID,917.463,VALID,0,VALID,98.0255,VALID,-0.0509425,VALID,19.5835,VALID,23,VALID,0.0357143,
2004-03-22, 01:32:00,VALID,917.424,VALID,0,VALID,97.8767,VALID,-0.101885,VALID,19.5549,VALID,23,VALID,0.545632,
2004-03-22, 01:33:00,VALID,917.389,VALID,0,VALID,98.2225,VALID,-0.0849042,VALID,19.5778,VALID,23,VALID,0.722384,
2004-03-22, 01:34:00,VALID,917.361,VALID,0,VALID,98.0153,VALID,-0.101885,VALID,19.5418,VALID,22,VALID,0.588118,
2004-03-22, 01:35:00,VALID,917.348,VALID,0,VALID,98.2696,VALID,-0.0339617,VALID,19.5648,VALID,15,VALID,0.624805,
2004-03-22, 01:36:00,VALID,917.323,VALID,0,VALID,98.2022,VALID,-0.0169808,VALID,19.5711,VALID,15,VALID,0.542151,
2004-03-22, 01:37:00,VALID,917.294,VALID,0,VALID,98.1984,VALID,-0.0509425,VALID,19.5648,VALID,18,VALID,0.535247,
2004-03-22, 01:38:00,VALID,917.278,VALID,0,VALID,98.0509,VALID,-0.0339617,VALID,19.5457,VALID,15,VALID,0.634718,
2004-03-22, 01:39:00,VALID,917.242,VALID,0,VALID,98.1501,VALID,-0.0679233,VALID,19.5393,VALID,13,VALID,0.757813,
2004-03-22, 01:40:00,VALID,917.2,VALID,0,VALID,98.351,VALID,-0.0679233,VALID,19.5711,VALID,14,VALID,0.916319,
2004-03-22, 01:41:00,VALID,917.185,VALID,0,VALID,98.1196,VALID,-0.0339617,VALID,19.5616,VALID,15,VALID,0.703506,
2004-03-22, 01:42:00,VALID,917.181,VALID,0,VALID,98.2264,VALID,-0.0509425,VALID,19.5909,VALID,9,VALID,0.637173,
2004-03-22, 01:43:00,VALID,917.173,VALID,0,VALID,98.3319,VALID,0,VALID,19.6193,VALID,10,VALID,0.476926,
2004-03-22, 01:44:00,VALID,917.155,VALID,0,VALID,98.3344,VALID,-0.0679233,VALID,19.6578,VALID,19,VALID,0.661644,
2004-03-22, 01:45:00,VALID,917.183,VALID,0,VALID,98.1056,VALID,0,VALID,19.6814,VALID,15,VALID,0.213542,
2004-03-22, 01:46:00,VALID,917.184,VALID,0,VALID,98.178,VALID,-0.0169808,VALID,19.6965,VALID,15,VALID,0.166853,
2004-03-22, 01:47:00,VALID,917.159,VALID,0,VALID,98.3535,VALID,-0.0509425,VALID,19.7358,VALID,15,VALID,0.723958,
2004-03-22, 01:48:00,VALID,917.146,VALID,0,VALID,98.1208,VALID,-0.0169808,VALID,19.742,VALID,17,VALID,0.593006,
2004-03-22, 01:49:00,VALID,917.126,VALID,0,VALID,98.3014,VALID,-0.0339617,VALID,19.7616,VALID,16,VALID,0.93099,
2004-03-22, 01:50:00,VALID,917.11,VALID,0,VALID,98.2556,VALID,-0.0339617,VALID,19.7971,VALID,9,VALID,0.208147,
2004-03-22, 01:51:00,VALID,917.088,VALID,0,VALID,98.1615,VALID,-0.0509425,VALID,19.7936,VALID,9,VALID,0.191964,
2004-03-22, 01:52:00,VALID,917.079,VALID,0,VALID,98.0229,VALID,-0.0339617,VALID,19.8033,VALID,9,VALID,0.402435,
2004-03-22, 01:53:00,VALID,917.088,VALID,0,VALID,97.8665,VALID,-0.0679233,VALID,19.7936,VALID,9,VALID,0.0414807,
2004-03-22, 01:54:00,VALID,917.086,VALID,0,VALID,97.7711,VALID,-0.0339617,VALID,19.78,VALID,9,VALID,0.114984,
2004-03-22, 01:55:00,VALID,917.054,VALID,0,VALID,97.6325,VALID,-0.0339617,VALID,19.7775,VALID,9,VALID,0.252486,
2004-03-22, 01:56:00,VALID,917.061,VALID,0,VALID,97.7482,VALID,-0.0509425,VALID,19.771,VALID,9,VALID,0.770531,
2004-03-22, 01:57:00,VALID,917.081,VALID,0,VALID,97.9263,VALID,-0.0509425,VALID,19.7872,VALID,10,VALID,0.714571,
2004-03-22, 01:58:00,VALID,917.083,VALID,0,VALID,97.8004,VALID,0,VALID,19.7775,VALID,8,VALID,0.854353,
2004-03-22, 01:59:00,VALID,917.115,VALID,0,VALID,97.9453,VALID,-0.0849042,VALID,19.8026,VALID,14,VALID,0.614879,
2004-03-22, 02:00:00,VALID,917.126,VALID,0,VALID,97.9377,VALID,-0.0339617,VALID,19.8262,VALID,12,VALID,0.129297,
2004-03-22, 02:01:00,VALID,917.121,VALID,0,VALID,97.9975,VALID,-0.0509425,VALID,19.862,VALID,12,VALID,0.0876524,
2004-03-22, 02:02:00,VALID,917.091,VALID,0,VALID,97.8474,VALID,-0.101885,VALID,19.8746,VALID,13,VALID,0.402158,
2004-03-22, 02:03:00,VALID,917.089,VALID,0,VALID,97.5143,VALID,-0.0339617,VALID,19.8781,VALID,13,VALID,0.795573,
2004-03-22, 02:04:00,VALID,917.081,VALID,0,VALID,97.3833,VALID,-0.0339617,VALID,19.8294,VALID,12,VALID,0.634266,
2004-03-22, 02:05:00,VALID,917.076,VALID,0,VALID,97.8907,VALID,-0.0339617,VALID,19.8776,VALID,15,VALID,1.10603,
2004-03-22, 02:06:00,VALID,917.082,VALID,0,VALID,98.0725,VALID,-0.0849042,VALID,19.9583,VALID,16,VALID,0.712936,
2004-03-22, 02:07:00,VALID,917.078,VALID,0,VALID,97.6147,VALID,-0.0509425,VALID,19.972,VALID,16,VALID,0.391226,
2004-03-22, 02:08:00,VALID,917.074,VALID,0,VALID,97.4558,VALID,-0.0509425,VALID,19.9481,VALID,16,VALID,0.649479,
2004-03-22, 02:09:00,VALID,917.089,VALID,0,VALID,97.4698,VALID,-0.0339617,VALID,19.9581,VALID,16,VALID,0.349702,
2004-03-22, 02:10:00,VALID,917.087,VALID,0,VALID,97.6745,VALID,-0.0679233,VALID,19.9785,VALID,15,VALID,0.0267857,
2004-03-22, 02:11:00,VALID,917.099,VALID,0,VALID,97.8512,VALID,-0.0339617,VALID,19.9941,VALID,15,VALID,0,
2004-03-22, 02:12:00,VALID,917.09,VALID,0,VALID,97.8512,VALID,-0.0509425,VALID,20.0068,VALID,15,VALID,0,
2004-03-22, 02:13:00,VALID,917.066,VALID,0,VALID,97.6109,VALID,-0.0509425,VALID,19.9869,VALID,16,VALID,0.425781,
2004-03-22, 02:14:00,VALID,917.075,VALID,0,VALID,97.2142,VALID,-0.0849042,VALID,19.9333,VALID,16,VALID,0.759487,
2004-03-22, 02:15:00,VALID,917.098,VALID,0,VALID,97.527,VALID,-0.0509425,VALID,19.9169,VALID,16,VALID,0.784226,
2004-03-22, 02:16:00,VALID,917.125,VALID,0,VALID,97.6338,VALID,-0.101885,VALID,19.9161,VALID,16,VALID,0.246449,
2004-03-22, 02:17:00,VALID,917.133,VALID,0,VALID,97.5728,VALID,-0.0679233,VALID,19.9062,VALID,16,VALID,0.316051,
2004-03-22, 02:18:00,VALID,917.108,VALID,0,VALID,97.527,VALID,-0.101885,VALID,19.9037,VALID,20,VALID,0.4875,
2004-03-22, 02:19:00,VALID,917.123,VALID,0,VALID,97.6313,VALID,-0.101885,VALID,19.9067,VALID,16,VALID,0.769077,
2004-03-22, 02:20:00,VALID,917.133,VALID,0,VALID,97.6529,VALID,-0.101885,VALID,19.9034,VALID,15,VALID,0.484747,
2004-03-22, 02:21:00,VALID,917.139,VALID,0,VALID,97.5906,VALID,-0.0679233,VALID,19.9101,VALID,15,VALID,0,
2004-03-22, 02:22:00,VALID,917.146,VALID,0,VALID,97.5588,VALID,-0.0849042,VALID,19.8967,VALID,15,VALID,0,
2004-03-22, 02:23:00,VALID,917.157,VALID,0,VALID,97.6847,VALID,-0.101885,VALID,19.9139,VALID,18,VALID,0.410528,
2004-03-22, 02:24:00,VALID,917.179,VALID,0,VALID,97.354,VALID,-0.0849042,VALID,19.9037,VALID,359,VALID,0.239025,
2004-03-22, 02:25:00,VALID,917.184,VALID,0,VALID,97.1875,VALID,-0.0679233,VALID,19.8875,VALID,2,VALID,0.159598,
2004-03-22, 02:26:00,VALID,917.193,VALID,0,VALID,97.1938,VALID,-0.0849042,VALID,19.8749,VALID,2,VALID,0.0994665,
2004-03-22, 02:27:00,VALID,917.192,VALID,0,VALID,97.4723,VALID,-0.101885,VALID,19.8744,VALID,2,VALID,0.337754,
2004-03-22, 02:28:00,VALID,917.18,VALID,0,VALID,97.4965,VALID,-0.0509425,VALID,19.8838,VALID,4,VALID,0.769531,
2004-03-22, 02:29:00,VALID,917.152,VALID,0,VALID,97.3375,VALID,-0.0679233,VALID,19.8547,VALID,9,VALID,1.06797,
2004-03-22, 02:30:00,VALID,917.144,VALID,0,VALID,97.5448,VALID,-0.0849042,VALID,19.8448,VALID,13,VALID,0.799964,
2004-03-22, 02:31:00,VALID,917.13,VALID,0,VALID,97.574,VALID,-0.0509425,VALID,19.8647,VALID,14,VALID,0.712612,
2004-03-22, 02:32:00,VALID,917.105,VALID,0,VALID,97.5461,VALID,-0.0679233,VALID,19.8552,VALID,14,VALID,0.719727,
2004-03-22, 02:33:00,VALID,917.093,VALID,0,VALID,97.5257,VALID,-0.0169808,VALID,19.8617,VALID,13,VALID,0.519077,
2004-03-22, 02:34:00,VALID,917.08,VALID,0,VALID,97.4545,VALID,-0.0849042,VALID,19.8451,VALID,13,VALID,0.511347,
2004-03-22, 02:35:00,VALID,917.07,VALID,0,VALID,97.5041,VALID,-0.0849042,VALID,19.8418,VALID,13,VALID,0.144336,
2004-03-22, 02:36:00,VALID,917.068,VALID,0,VALID,97.7076,VALID,-0.0849042,VALID,19.858,VALID,13,VALID,0,
2004-03-22, 02:37:00,VALID,917.086,VALID,0,VALID,97.8258,VALID,-0.0509425,VALID,19.897,VALID,13,VALID,0,
2004-03-22, 02:38:00,VALID,917.096,VALID,0,VALID,97.7851,VALID,-0.0679233,VALID,19.9029,VALID,13,VALID,0,
2004-03-22, 02:39:00,VALID,917.074,VALID,0,VALID,97.6287,VALID,-0.0509425,VALID,19.9037,VALID,13,VALID,0.0869792,
2004-03-22, 02:40:00,VALID,917.093,VALID,0,VALID,97.4329,VALID,-0.0849042,VALID,19.8744,VALID,13,VALID,0.154119,
2004-03-22, 02:41:00,VALID,917.096,VALID,0,VALID,97.4367,VALID,-0.0849042,VALID,19.8488,VALID,13,VALID,0,
2004-03-22, 02:42:00,VALID,917.115,VALID,0,VALID,97.5346,VALID,-0.0339617,VALID,19.8485,VALID,13,VALID,0.000400641,
2004-03-22, 02:43:00,VALID,917.127,VALID,0,VALID,97.5995,VALID,-0.101885,VALID,19.8388,VALID,13,VALID,0.0526414,
2004-03-22, 02:44:00,VALID,917.132,VALID,0,VALID,97.822,VALID,-0.101885,VALID,19.8488,VALID,13,VALID,0.237351,
2004-03-22, 02:45:00,VALID,917.129,VALID,0,VALID,97.747,VALID,-0.0679233,VALID,19.8386,VALID,13,VALID,0.00181686,
2004-03-22, 02:46:00,VALID,917.151,VALID,0,VALID,97.6974,VALID,-0.0679233,VALID,19.8259,VALID,13,VALID,0,
2004-03-22, 02:47:00,VALID,917.159,VALID,0,VALID,97.7343,VALID,-0.0679233,VALID,19.8294,VALID,13,VALID,0,
2004-03-22, 02:48:00,VALID,917.158,VALID,0,VALID,97.5473,VALID,-0.0849042,VALID,19.8063,VALID,13,VALID,0,
2004-03-22, 02:49:00,VALID,917.153,VALID,0,VALID,97.4431,VALID,-0.0509425,VALID,19.7676,VALID,26,VALID,0.433321,
2004-03-22, 02:50:00,VALID,917.135,VALID,0,VALID,97.2981,VALID,-0.0849042,VALID,19.729,VALID,35,VALID,0.591211,
2004-03-22, 02:51:00,VALID,917.124,VALID,0,VALID,97.4036,VALID,-0.101885,VALID,19.6898,VALID,20,VALID,0.280692,
2004-03-22, 02:52:00,VALID,917.097,VALID,0,VALID,97.5995,VALID,-0.101885,VALID,19.6843,VALID,20,VALID,0.703488,
2004-03-22, 02:53:00,VALID,917.064,VALID,0,VALID,97.5867,VALID,-0.0849042,VALID,19.6578,VALID,16,VALID,0.938045,
2004-03-22, 02:54:00,VALID,917.046,VALID,0,VALID,97.6745,VALID,-0.101885,VALID,19.6478,VALID,23,VALID,1.0794,
2004-03-22, 02:55:00,VALID,917.029,VALID,0,VALID,97.9085,VALID,-0.101885,VALID,19.6933,VALID,15,VALID,0.997582,
2004-03-22, 02:56:00,VALID,917.009,VALID,0,VALID,97.9288,VALID,-0.0509425,VALID,19.7223,VALID,16,VALID,1.01944,
2004-03-22, 02:57:00,VALID,916.995,VALID,0,VALID,97.8436,VALID,-0.0849042,VALID,19.7385,VALID,19,VALID,1.18247,
2004-03-22, 02:58:00,VALID,916.981,VALID,0,VALID,97.7737,VALID,-0.101885,VALID,19.7842,VALID,19,VALID,1.0992,
2004-03-22, 02:59:00,VALID,916.971,VALID,0,VALID,97.5626,VALID,-0.101885,VALID,19.7902,VALID,25,VALID,1.02788,
2004-03-22, 03:00:00,VALID,916.972,VALID,0,VALID,97.7533,VALID,-0.0849042,VALID,19.8192,VALID,10,VALID,1.18807,
2004-03-22, 03:01:00,VALID,916.979,VALID,0,VALID,97.6529,VALID,-0.101885,VALID,19.8423,VALID,20,VALID,0.740076,
2004-03-22, 03:02:00,VALID,916.976,VALID,0,VALID,97.616,VALID,-0.0849042,VALID,19.858,VALID,17,VALID,0.859003,
2004-03-22, 03:03:00,VALID,916.978,VALID,0,VALID,97.5486,VALID,-0.0849042,VALID,19.8518,VALID,19,VALID,1.12422,
2004-03-22, 03:04:00,VALID,916.978,VALID,0,VALID,97.5155,VALID,-0.0849042,VALID,19.8485,VALID,8,VALID,0.75071,
2004-03-22, 03:05:00,VALID,916.969,VALID,0,VALID,97.747,VALID,-0.101885,VALID,19.8813,VALID,2,VALID,0.744606,
2004-03-22, 03:06:00,VALID,916.97,VALID,0,VALID,97.705,VALID,-0.101885,VALID,19.8776,VALID,7,VALID,0.472752,
2004-03-22, 03:07:00,VALID,916.967,VALID,0,VALID,97.6707,VALID,-0.0849042,VALID,19.8841,VALID,9,VALID,0.277439,
2004-03-22, 03:08:00,VALID,916.96,VALID,0,VALID,97.6224,VALID,-0.0679233,VALID,19.8773,VALID,9,VALID,0,
2004-03-22, 03:09:00,VALID,916.932,VALID,0,VALID,97.6058,VALID,-0.0849042,VALID,19.8714,VALID,9,VALID,0.000195313,
2004-03-22, 03:10:00,VALID,916.915,VALID,0,VALID,97.7393,VALID,-0.0849042,VALID,19.8709,VALID,9,VALID,0.0078125,
2004-03-22, 03:11:00,VALID,916.896,VALID,0,VALID,97.8106,VALID,-0.101885,VALID,19.8779,VALID,9,VALID,0,
2004-03-22, 03:12:00,VALID,916.891,VALID,0,VALID,97.8156,VALID,-0.0849042,VALID,19.8741,VALID,9,VALID,0,
2004-03-22, 03:13:00,VALID,916.89,VALID,0,VALID,97.7966,VALID,-0.0679233,VALID,19.8716,VALID,9,VALID,0,
2004-03-22, 03:14:00,VALID,916.881,VALID,0,VALID,97.7393,VALID,-0.101885,VALID,19.8488,VALID,9,VALID,0.0260417,
2004-03-22, 03:15:00,VALID,916.882,VALID,0,VALID,97.7482,VALID,-0.0679233,VALID,19.8354,VALID,9,VALID,0.0421512,
2004-03-22, 03:16:00,VALID,916.858,VALID,0,VALID,97.7343,VALID,0.0339617,VALID,19.8277,VALID,9,VALID,0.0889137,
2004-03-22, 03:17:00,VALID,916.858,VALID,0,VALID,98.0967,VALID,0.0169808,VALID,19.8734,VALID,11,VALID,0.495821,
2004-03-22, 03:18:00,VALID,916.882,VALID,0,VALID,97.8945,VALID,0.0169808,VALID,19.8823,VALID,7,VALID,0.120236,
2004-03-22, 03:19:00,VALID,916.867,VALID,0,VALID,97.8563,VALID,0,VALID,19.8793,VALID,15,VALID,0.238809,
2004-03-22, 03:20:00,VALID,916.856,VALID,0,VALID,97.8131,VALID,0.0509425,VALID,19.8764,VALID,18,VALID,0.181686,
2004-03-22, 03:21:00,VALID,916.855,VALID,0,VALID,97.761,VALID,0.0169808,VALID,19.8535,VALID,16,VALID,0.204613,
2004-03-22, 03:22:00,VALID,916.871,VALID,0,VALID,97.9339,VALID,0.0339617,VALID,19.86,VALID,16,VALID,0.377486,
2004-03-22, 03:23:00,VALID,916.867,VALID,0,VALID,98.0636,VALID,0.0509425,VALID,19.8527,VALID,16,VALID,0.438244,
2004-03-22, 03:24:00,VALID,916.876,VALID,0,VALID,98.056,VALID,0.0339617,VALID,19.8567,VALID,18,VALID,0.549107,
2004-03-22, 03:25:00,VALID,916.885,VALID,0,VALID,97.8729,VALID,0.0509425,VALID,19.8339,VALID,21,VALID,0.353472,
2004-03-22, 03:26:00,VALID,916.877,VALID,0,VALID,97.9809,VALID,0.0679233,VALID,19.8272,VALID,21,VALID,0.278274,
2004-03-22, 03:27:00,VALID,916.859,VALID,0,VALID,98.0865,VALID,0.101885,VALID,19.8371,VALID,21,VALID,0.486861,
2004-03-22, 03:28:00,VALID,916.852,VALID,0,VALID,98.2048,VALID,0.0169808,VALID,19.8567,VALID,19,VALID,0.517805,
2004-03-22, 03:29:00,VALID,916.844,VALID,0,VALID,98.0344,VALID,0.0339617,VALID,19.8339,VALID,18,VALID,0.352515,
2004-03-22, 03:30:00,VALID,916.818,VALID,0,VALID,97.9581,VALID,0.0339617,VALID,19.8177,VALID,18,VALID,0.490234,
2004-03-22, 03:31:00,VALID,916.812,VALID,0,VALID,98.0585,VALID,-0.0679233,VALID,19.8061,VALID,18,VALID,0.496094,
2004-03-22, 03:32:00,VALID,916.801,VALID,0,VALID,98.2276,VALID,-0.0169808,VALID,19.8225,VALID,18,VALID,0.704055,
2004-03-22, 03:33:00,VALID,916.804,VALID,0,VALID,98.2607,VALID,-0.0849042,VALID,19.8227,VALID,19,VALID,0.917878,
2004-03-22, 03:34:00,VALID,916.786,VALID,0,VALID,98.3256,VALID,-0.101885,VALID,19.8297,VALID,20,VALID,1.01823,
2004-03-22, 03:35:00,VALID,916.78,VALID,0,VALID,98.2798,VALID,-0.101885,VALID,19.8264,VALID,17,VALID,0.504012,
2004-03-22, 03:36:00,VALID,916.764,VALID,0,VALID,98.3281,VALID,-0.0849042,VALID,19.8294,VALID,17,VALID,0.409477,
2004-03-22, 03:37:00,VALID,916.751,VALID,0,VALID,98.2989,VALID,-0.0849042,VALID,19.8525,VALID,17,VALID,0.268111,